Terminal Aerodrome Forecast
Issued by NWS St Louis, MO

Home | Current Version | Previous Version | Text Only | Print | Product List | Glossary On
Versions: 1 2 3 4 5 6 7 8 9 10 11 12 13 14 15 16 17 18 19 20 21 22 23 24 25
000
FTUS43 KLSX 050800 AAA
TAFSTL
TAF AMD
KSTL 050859Z 0509/0612 20008KT P6SM SCT070 BKN250
     FM051800 20010G18KT P6SM SCT060
     FM060000 18008KT P6SM SCT250=

USA.gov is the U.S. government's official web portal to all federal, state and local government web resources and services.